Time,TemperatureF,DewpointF,PressureIn,WindDirection,WindDirectionDegrees,WindSpeedMPH,WindSpeedGustMPH,Humidity,HourlyPrecipIn,Conditions,Clouds,dailyrainin,SoftwareType,DateUTC
2013-07-08 00:06:00,71.0,71.0,29.88,North,353,0.0,0.0,100,0.00,,,0.24,weatherlink.com 1.10,2013-07-08 04:06:00,
2013-07-08 00:21:00,70.9,71.0,29.88,North,352,0.0,0.0,100,0.01,,,0.25,weatherlink.com 1.10,2013-07-08 04:21:00,
2013-07-08 00:36:00,70.8,71.0,29.88,North,353,0.0,0.0,100,0.01,,,0.25,weatherlink.com 1.10,2013-07-08 04:36:00,
2013-07-08 00:51:00,70.8,71.0,29.87,North,353,0.0,0.0,100,0.01,,,0.25,weatherlink.com 1.10,2013-07-08 04:51:00,
2013-07-08 01:06:00,71.0,71.0,29.87,North,352,0.0,0.0,100,0.01,,,0.25,weatherlink.com 1.10,2013-07-08 05:06:00,
2013-07-08 01:21:00,71.2,71.0,29.87,North,354,0.0,0.0,100,0.00,,,0.25,weatherlink.com 1.10,2013-07-08 05:21:00,
2013-07-08 01:36:00,71.5,72.0,29.88,North,352,0.0,0.0,100,0.00,,,0.25,weatherlink.com 1.10,2013-07-08 05:36:00,
2013-07-08 01:51:00,71.4,71.0,29.88,North,352,0.0,0.0,100,0.00,,,0.25,weatherlink.com 1.10,2013-07-08 05:51:00,
2013-07-08 02:06:00,71.1,71.0,29.88,North,353,0.0,0.0,100,0.00,,,0.25,weatherlink.com 1.10,2013-07-08 06:06:00,
2013-07-08 02:21:00,71.0,71.0,29.88,North,354,0.0,0.0,100,0.00,,,0.25,weatherlink.com 1.10,2013-07-08 06:21:00,
2013-07-08 02:36:00,70.9,71.0,29.88,North,354,0.0,1.0,100,0.00,,,0.25,weatherlink.com 1.10,2013-07-08 06:36:00,
2013-07-08 02:51:00,70.9,71.0,29.88,North,354,0.0,0.0,100,0.00,,,0.25,weatherlink.com 1.10,2013-07-08 06:51:00,
2013-07-08 03:06:00,71.1,71.0,29.87,North,354,0.0,0.0,100,0.00,,,0.25,weatherlink.com 1.10,2013-07-08 07:06:00,
2013-07-08 03:21:00,70.9,71.0,29.87,North,354,0.0,0.0,100,0.00,,,0.25,weatherlink.com 1.10,2013-07-08 07:21:00,
2013-07-08 03:36:00,70.9,71.0,29.88,North,352,0.0,0.0,100,0.00,,,0.25,weatherlink.com 1.10,2013-07-08 07:36:00,
2013-07-08 03:51:00,70.8,71.0,29.88,North,352,0.0,0.0,100,0.00,,,0.25,weatherlink.com 1.10,2013-07-08 07:51:00,
2013-07-08 04:06:00,70.7,71.0,29.87,North,354,0.0,0.0,100,0.00,,,0.25,weatherlink.com 1.10,2013-07-08 08:06:00,
2013-07-08 04:21:00,70.8,71.0,29.88,North,352,0.0,0.0,100,0.00,,,0.25,weatherlink.com 1.10,2013-07-08 08:21:00,
2013-07-08 04:36:00,70.8,71.0,29.88,North,353,0.0,0.0,100,0.00,,,0.25,weatherlink.com 1.10,2013-07-08 08:36:00,
2013-07-08 04:51:00,70.6,71.0,29.88,North,353,0.0,0.0,100,0.00,,,0.25,weatherlink.com 1.10,2013-07-08 08:51:00,
2013-07-08 05:06:00,70.4,70.0,29.88,North,353,0.0,0.0,100,0.00,,,0.25,weatherlink.com 1.10,2013-07-08 09:06:00,
2013-07-08 05:21:00,70.3,70.0,29.88,North,352,0.0,0.0,100,0.00,,,0.25,weatherlink.com 1.10,2013-07-08 09:21:00,
2013-07-08 05:36:00,70.1,70.0,29.88,North,352,0.0,0.0,100,0.00,,,0.25,weatherlink.com 1.10,2013-07-08 09:36:00,
2013-07-08 05:51:00,70.3,70.0,29.89,North,354,0.0,0.0,100,0.00,,,0.25,weatherlink.com 1.10,2013-07-08 09:51:00,
2013-07-08 06:06:00,70.8,71.0,29.89,North,354,0.0,0.0,100,0.00,,,0.25,weatherlink.com 1.10,2013-07-08 10:06:00,
2013-07-08 06:21:00,71.1,71.0,29.89,North,354,0.0,1.0,100,0.00,,,0.25,weatherlink.com 1.10,2013-07-08 10:21:00,
2013-07-08 06:36:00,71.0,71.0,29.89,SE,141,0.0,1.0,100,0.00,,,0.25,weatherlink.com 1.10,2013-07-08 10:36:00,
2013-07-08 06:51:00,71.1,71.0,29.89,SSE,161,0.0,1.0,100,0.00,,,0.25,weatherlink.com 1.10,2013-07-08 10:51:00,
2013-07-08 07:06:00,71.4,71.0,29.89,SSE,160,0.0,0.0,100,0.00,,,0.25,weatherlink.com 1.10,2013-07-08 11:06:00,
2013-07-08 07:21:00,71.5,72.0,29.90,SSE,160,0.0,0.0,100,0.00,,,0.25,weatherlink.com 1.10,2013-07-08 11:21:00,
2013-07-08 07:36:00,71.6,72.0,29.90,SSE,160,0.0,1.0,100,0.00,,,0.25,weatherlink.com 1.10,2013-07-08 11:36:00,
2013-07-08 07:51:00,72.0,72.0,29.91,SSE,160,0.0,0.0,100,0.00,,,0.25,weatherlink.com 1.10,2013-07-08 11:51:00,
2013-07-08 08:06:00,72.2,72.0,29.91,SSE,160,0.0,0.0,100,0.00,,,0.25,weatherlink.com 1.10,2013-07-08 12:06:00,
2013-07-08 08:21:00,72.2,72.0,29.91,SSE,161,0.0,0.0,100,0.00,,,0.25,weatherlink.com 1.10,2013-07-08 12:21:00,
2013-07-08 08:36:00,72.6,73.0,29.91,SSE,161,0.0,0.0,100,0.00,,,0.25,weatherlink.com 1.10,2013-07-08 12:36:00,
2013-07-08 08:51:00,73.2,73.0,29.91,SSE,159,0.0,0.0,100,0.00,,,0.25,weatherlink.com 1.10,2013-07-08 12:51:00,
2013-07-08 09:06:00,73.2,73.0,29.91,SSE,159,0.0,0.0,100,0.00,,,0.25,weatherlink.com 1.10,2013-07-08 13:06:00,
2013-07-08 09:21:00,73.9,74.0,29.91,WSW,244,0.0,1.0,100,0.00,,,0.25,weatherlink.com 1.10,2013-07-08 13:21:00,
2013-07-08 09:36:00,74.5,74.0,29.91,WSW,243,0.0,1.0,98,0.00,,,0.25,weatherlink.com 1.10,2013-07-08 13:36:00,
2013-07-08 09:51:00,75.5,74.0,29.91,ESE,120,0.0,1.0,96,0.00,,,0.25,weatherlink.com 1.10,2013-07-08 13:51:00,
2013-07-08 10:06:00,75.6,74.0,29.92,ESE,120,0.0,0.0,94,0.00,,,0.25,weatherlink.com 1.10,2013-07-08 14:06:00,
2013-07-08 10:21:00,75.4,74.0,29.92,ESE,120,0.0,1.0,94,0.00,,,0.25,weatherlink.com 1.10,2013-07-08 14:21:00,
2013-07-08 10:36:00,74.5,73.0,29.92,ESE,119,0.0,0.0,94,0.00,,,0.25,weatherlink.com 1.10,2013-07-08 14:36:00,
2013-07-08 10:51:00,74.6,73.0,29.92,SE,136,1.0,1.0,95,0.00,,,0.25,weatherlink.com 1.10,2013-07-08 14:51:00,
2013-07-08 11:06:00,75.2,73.0,29.92,ESE,111,0.0,2.0,91,0.00,,,0.25,weatherlink.com 1.10,2013-07-08 15:06:00,
2013-07-08 11:21:00,74.4,72.0,29.93,East,83,0.0,1.0,92,0.01,,,0.26,weatherlink.com 1.10,2013-07-08 15:21:00,
2013-07-08 11:36:00,73.1,72.0,29.93,East,84,0.0,0.0,96,0.03,,,0.28,weatherlink.com 1.10,2013-07-08 15:36:00,
2013-07-08 11:52:00,74.3,74.0,29.93,West,274,0.0,1.0,99,0.03,,,0.28,weatherlink.com 1.10,2013-07-08 15:52:00,
2013-07-08 12:07:00,75.7,74.0,29.93,ENE,74,0.0,1.0,93,0.04,,,0.29,weatherlink.com 1.10,2013-07-08 16:07:00,
2013-07-08 12:22:00,77.0,74.0,29.94,East,90,0.0,0.0,89,0.02,,,0.29,weatherlink.com 1.10,2013-07-08 16:22:00,
2013-07-08 12:37:00,77.3,74.0,29.93,East,97,0.0,2.0,88,0.01,,,0.29,weatherlink.com 1.10,2013-07-08 16:37:00,
2013-07-08 13:07:00,79.1,75.0,29.93,WSW,238,0.0,2.0,86,0.00,,,0.29,weatherlink.com 1.10,2013-07-08 17:07:00,
2013-07-08 13:22:00,80.4,75.0,29.94,SSE,148,1.0,3.0,84,0.00,,,0.29,weatherlink.com 1.10,2013-07-08 17:22:00,
2013-07-08 13:37:00,77.4,73.0,29.93,SE,145,1.0,3.0,86,0.00,,,0.29,weatherlink.com 1.10,2013-07-08 17:37:00,
2013-07-08 13:52:00,76.9,74.0,29.93,ESE,115,0.0,1.0,89,0.00,,,0.29,weatherlink.com 1.10,2013-07-08 17:52:00,
2013-07-08 14:07:00,76.1,73.0,29.93,SSW,198,0.0,1.0,90,0.00,,,0.29,weatherlink.com 1.10,2013-07-08 18:07:00,
2013-07-08 14:22:00,75.3,73.0,29.92,ESE,112,2.0,2.0,91,0.00,,,0.29,weatherlink.com 1.10,2013-07-08 18:22:00,
2013-07-08 15:07:00,72.4,71.0,29.94,SE,141,0.0,2.0,95,0.06,,,0.35,weatherlink.com 1.10,2013-07-08 19:07:00,
2013-07-08 15:22:00,71.4,71.0,29.94,SE,139,0.0,1.0,97,0.09,,,0.38,weatherlink.com 1.10,2013-07-08 19:22:00,
2013-07-08 15:52:00,70.5,70.0,29.93,East,100,0.0,1.0,98,0.11,,,0.40,weatherlink.com 1.10,2013-07-08 19:52:00,
2013-07-08 16:07:00,70.5,70.0,29.94,East,101,0.0,1.0,99,0.05,,,0.40,weatherlink.com 1.10,2013-07-08 20:07:00,
2013-07-08 16:37:00,69.9,70.0,29.94,ESE,105,0.0,1.0,99,0.03,,,0.42,weatherlink.com 1.10,2013-07-08 20:37:00,
2013-07-08 17:22:00,68.4,68.0,29.95,East,93,0.0,2.0,98,0.02,,,0.42,weatherlink.com 1.10,2013-07-08 21:22:00,
2013-07-08 17:37:00,67.5,67.0,29.95,ESE,105,1.0,2.0,97,0.00,,,0.42,weatherlink.com 1.10,2013-07-08 21:37:00,
2013-07-08 18:07:00,66.2,65.0,29.96,East,86,1.0,1.0,97,0.01,,,0.43,weatherlink.com 1.10,2013-07-08 22:07:00,
2013-07-08 18:52:00,65.2,65.0,29.97,SE,134,0.0,1.0,99,0.21,,,0.63,weatherlink.com 1.10,2013-07-08 22:52:00,
2013-07-08 19:07:00,65.3,65.0,29.97,SE,134,0.0,1.0,99,0.20,,,0.00,weatherlink.com 1.10,2013-07-08 23:07:00,
2013-07-08 19:22:00,65.2,65.0,29.98,SE,134,0.0,1.0,99,0.00,,,0.00,weatherlink.com 1.10,2013-07-08 23:22:00,
2013-07-08 19:37:00,64.6,64.0,29.98,SE,135,0.0,1.0,99,0.01,,,0.01,weatherlink.com 1.10,2013-07-08 23:37:00,
2013-07-08 20:07:00,64.1,64.0,29.99,SE,134,0.0,0.0,99,0.07,,,0.07,weatherlink.com 1.10,2013-07-09 00:07:00,
2013-07-08 20:38:00,63.2,63.0,30.00,SE,126,1.0,1.0,99,0.07,,,0.08,weatherlink.com 1.10,2013-07-09 00:38:00,
2013-07-08 20:53:00,62.7,63.0,30.01,SE,125,0.0,1.0,99,0.03,,,0.08,weatherlink.com 1.10,2013-07-09 00:53:00,
2013-07-08 21:08:00,62.5,63.0,30.02,SE,126,0.0,0.0,100,0.01,,,0.08,weatherlink.com 1.10,2013-07-09 01:08:00,
2013-07-08 21:38:00,62.3,62.0,30.03,SE,126,0.0,0.0,100,0.00,,,0.08,weatherlink.com 1.10,2013-07-09 01:38:00,
2013-07-08 22:08:00,62.3,62.0,30.03,SE,126,0.0,0.0,100,0.00,,,0.08,weatherlink.com 1.10,2013-07-09 02:08:00,
2013-07-08 22:53:00,62.6,63.0,30.03,SE,126,0.0,0.0,100,0.01,,,0.09,weatherlink.com 1.10,2013-07-09 02:53:00,
2013-07-08 23:08:00,62.8,63.0,30.03,SE,126,0.0,0.0,100,0.03,,,0.11,weatherlink.com 1.10,2013-07-09 03:08:00,
2013-07-08 23:23:00,62.9,63.0,30.03,SE,126,0.0,0.0,100,0.03,,,0.11,weatherlink.com 1.10,2013-07-09 03:23:00,
2013-07-08 23:38:00,62.9,63.0,30.04,SE,126,0.0,0.0,100,0.03,,,0.11,weatherlink.com 1.10,2013-07-09 03:38:00,
2013-07-08 23:53:00,62.9,63.0,30.04,SE,126,0.0,0.0,100,0.02,,,0.11,weatherlink.com 1.10,2013-07-09 03:53:00,